Regional Weather Roundup
Issued by NWS

Home | Current Version | Previous Version | Graphics & Text | Print | Product List | Glossary On
Versions: 1 2 3 4 5 6 7 8 9 10 11 12 13 14 15 16 17 18 19 20 21 22 23 24 25 26 27 28 29 30 31 32 33 34 35 36 37 38 39 40 41 42 43 44 45 46 47 48 49 50
000
ASUS44 KMEG 261100
RWRTN
TENNESSEE HOURLY STATE WEATHER ROUNDUP
NATIONAL WEATHER SERVICE MEMPHIS TN
600 AM CDT THU MAR 26 2015

TNZ002-004-019-021-049-052-054-088>092-261200-
WEST TENNESSEE

CITY           SKY/WX    TMP DP  RH WIND       PRES   REMARKS
MEMPHIS INTL   CLOUDY    63  56  78 NE5       29.88S
NWS MEMPHIS      N/A     62 N/A N/A MISG        N/A
JACKSON        CLOUDY    60  55  83 NW5       29.89R
DYERSBURG      CLOUDY    55  45  67 CALM      29.88F
UNION CITY     CLOUDY    54  54 100 NW7       29.88R
PARIS          CLOUDY    54  52  94 CALM      29.87R
LEXINGTON      MOCLDY    61  54  77 SW7       29.86R
SAVANNAH       CLEAR     63  55  77 S8        29.89R
$$

TNZ008-025-027-028-033-062-065-066-261200-
NORTH MIDDLE TENNESSEE

CITY           SKY/WX    TMP DP  RH WIND       PRES   REMARKS
NASHVILLE      LGT RAIN  62  54  74 S10       29.86S
CLARKSVILLE    CLOUDY    54  52  93 W3        29.86S FOG
COOKEVILLE     CLOUDY    63  57  82 S8        29.89R
CROSSVILLE     CLOUDY    61  55  81 S8G17     29.93S
$$

TNZ061-075-076-078-094-096-097-261200-
SOUTH MIDDLE TENNESSEE

CITY           SKY/WX    TMP DP  RH WIND       PRES   REMARKS
FAYETTEVILLE   CLOUDY    61  54  77 SW8       29.93S
TULLAHOMA      CLOUDY    61  55  82 SW10      29.93R
WINCHESTER     CLOUDY    63  57  82 S7        29.94R
COLUMBIA       CLOUDY    63  63 100 SW12      29.86F
SHELBYVILLE    MOCLDY    63  57  82 S10       29.91S
$$

TNZ017-018-042-046-047-261200-
NORTHEAST TENNESSEE

CITY           SKY/WX    TMP DP  RH WIND       PRES   REMARKS
TRI CITIES     CLOUDY    55  53  93 CALM      29.93S
ELIZABETHTON   PTSUNNY   50  48  93 CALM      29.94R
$$

TNZ012-013-036-069-073-074-261200-
CENTRAL EAST TENNESSEE

CITY           SKY/WX    TMP DP  RH WIND       PRES   REMARKS
KNOXVILLE      CLOUDY    63  54  72 W8        29.91S
OAK RIDGE      CLOUDY    62  56  80 CALM      29.93F
GATLINBURG     CLOUDY    59  48  67 SW5       29.91S
$$

TNZ083-085-099-261200-
SOUTHEAST TENNESSEE

CITY           SKY/WX    TMP DP  RH WIND       PRES   REMARKS
CHATTANOOGA    MOCLDY    65  59  81 S6        29.95R
$$

SKY/WX REPORTED AS FAIR MEANS FEW OR NO CLOUDS BELOW
12 THOUSAND FEET.



USA.gov is the U.S. government's official web portal to all federal, state and local government web resources and services.